Hoquiam, WA
on Sunday, November 25, 2012

Sunday
Previous Day Next Day
Daily Summary
 ActualAverageRecord
Temperature
Mean Temperature °F 44°F  
Max Temperature 48°F 49°F 59°F (1977)
Min Temperature 33°F 39°F 24°F (1985)
Degree Days
Heating Degree Days 24 21  
Month to date heating degree days 467  
Cooling Degree Days 0 0  
Month to date cooling degree days 0  
Year to date cooling degree days 23  
Moisture
Dew Point 36°F   
Average Humidity 93    
Maximum Humidity 100    
Minimum Humidity 66    
Precipitation
Precipitation 0.00 in 0.37 in 2.53 in (1977)
Month to date precipitation 9.29  
Year to date precipitation 55.71  
Wind
Wind Speed 5 mph   
Max Wind Speed 9 mph   
Max Gust Speed mph   
Visibility 4 miles   
Events Fog   

Key: T is trace of precipitation, MM is missing value
Source: NWS Daily Summary
Time(PST)TemperatureDew PointHumidity Pressure Visibility Wind DirectionWind SpeedGust SpeedPrecipitationEvents Conditions
12:15 AM 35.6°F 35.6°F 100% 30.28 in 0.5 miles NE 3.5 mph - N/A Fog Fog
12:53 AM 35.1°F 35.1°F 100% 30.30 in 0.2 miles North 3.5 mph - N/A Fog Fog
1:06 AM 35.6°F 35.6°F 100% 30.28 in 0.2 miles North 3.5 mph - N/A Fog Fog
1:53 AM 35.1°F 35.1°F 100% 30.30 in 0.2 miles Calm Calm - N/A Fog Fog
2:20 AM 35.6°F 35.6°F 100% 30.29 in 0.5 miles NNE 3.5 mph - N/A Fog Fog
2:53 AM 36.0°F 36.0°F 100% 30.31 in 0.5 miles NNE 3.5 mph - N/A Fog Fog
3:17 AM 35.6°F 35.6°F 100% 30.30 in 0.2 miles Calm Calm - N/A Fog Fog
3:27 AM 35.6°F 35.6°F 100% 30.30 in 0.5 miles NE 4.6 mph - N/A Fog Fog
3:45 AM 35.6°F 35.6°F 100% 30.30 in 0.2 miles NE 4.6 mph - N/A Fog Fog
3:53 AM 36.0°F 36.0°F 100% 30.31 in 0.2 miles NNE 3.5 mph - N/A Fog Fog
4:36 AM 35.6°F 35.6°F 100% 30.30 in 0.2 miles NE 3.5 mph - N/A Fog Fog
4:53 AM 36.0°F 35.1°F 97% 30.30 in 0.2 miles NE 4.6 mph - N/A Fog Fog
5:53 AM 35.1°F 34.0°F 96% 30.31 in 0.5 miles NE 5.8 mph - N/A Fog Fog
6:53 AM 35.1°F 34.0°F 96% 30.31 in 1.0 miles NE 8.1 mph - N/A   Overcast
7:26 AM 33.8°F 33.8°F 100% 30.31 in 3.0 miles NNE 5.8 mph - N/A   Overcast
7:33 AM 33.8°F 33.8°F 100% 30.31 in 2.5 miles NNE 4.6 mph - N/A   Overcast
7:53 AM 34.0°F 34.0°F 100% 30.32 in 10.0 miles NNE 4.6 mph - N/A   Overcast
8:17 AM 33.8°F 33.8°F 100% 30.32 in 1.8 miles NNE 5.8 mph - N/A   Overcast
8:32 AM 35.6°F 35.6°F 100% 30.32 in 0.5 miles NNE 5.8 mph - N/A Fog Fog
8:46 AM 35.6°F 33.8°F 93% 30.33 in 1.5 miles NNE 5.8 mph - N/A   Overcast
8:53 AM 35.1°F 34.0°F 96% 30.34 in 1.5 miles NE 5.8 mph - N/A   Overcast
9:14 AM 35.6°F 35.6°F 100% 30.33 in 2.0 miles NE 6.9 mph - N/A   Overcast
9:21 AM 35.6°F 33.8°F 93% 30.33 in 1.0 miles NE 4.6 mph - N/A   Overcast
9:31 AM 35.6°F 35.6°F 100% 30.33 in 0.5 miles NE 4.6 mph - N/A Fog Fog
9:53 AM 36.0°F 36.0°F 100% 30.34 in 0.5 miles NE 5.8 mph - N/A Fog Fog
10:31 AM 37.4°F 37.4°F 100% 30.33 in 1.5 miles NE 5.8 mph - N/A   Overcast
10:53 AM 39.0°F 39.0°F 100% 30.35 in 0.8 miles ENE 4.6 mph - N/A   Overcast
11:02 AM 39.2°F 39.2°F 100% 30.34 in 1.5 miles NE 4.6 mph - N/A   Overcast
11:09 AM 39.2°F 39.2°F 100% 30.34 in 3.0 miles ENE 8.1 mph - N/A   Overcast
11:44 AM 41.0°F 39.2°F 93% 30.33 in 10.0 miles ENE 9.2 mph - N/A   Mostly Cloudy
11:53 AM 43.0°F 41.0°F 93% 30.33 in 10.0 miles ENE 6.9 mph - N/A   Mostly Cloudy
12:13 PM 44.6°F 41.0°F 87% 30.31 in 10.0 miles NE 6.9 mph - N/A   Scattered Clouds
12:53 PM 46.9°F 39.9°F 77% 30.30 in 10.0 miles NE 8.1 mph - N/A   Clear
1:53 PM 48.9°F 39.9°F 71% 30.29 in 10.0 miles NE 5.8 mph - N/A   Clear
2:53 PM 48.0°F 37.0°F 66% 30.28 in 10.0 miles NNE 8.1 mph - N/A   Clear
3:53 PM 46.0°F 37.9°F 73% 30.28 in 10.0 miles NE 4.6 mph - N/A   Clear
4:53 PM 44.1°F 39.0°F 82% 30.27 in 10.0 miles NE 5.8 mph - N/A   Clear
5:53 PM 43.0°F 37.9°F 82% 30.25 in 10.0 miles NNE 4.6 mph - N/A   Clear
6:53 PM 42.1°F 37.9°F 85% 30.25 in 10.0 miles NNE 5.8 mph - N/A   Clear
7:53 PM 41.0°F 37.0°F 86% 30.24 in 10.0 miles NNE 6.9 mph - N/A   Clear
8:53 PM 39.9°F 36.0°F 86% 30.21 in 10.0 miles NNE 9.2 mph - N/A   Clear
9:53 PM 39.0°F 35.1°F 86% 30.20 in 10.0 miles NE 5.8 mph - N/A   Clear
10:53 PM 37.9°F 35.1°F 89% 30.20 in 10.0 miles NNE 6.9 mph - N/A   Clear
11:53 PM 39.0°F 35.1°F 86% 30.19 in 10.0 miles NNE 8.1 mph - N/A   Clear
Moon Phase
Nov. 25 Nov. 28 Dec. 06 Dec. 13 Dec. 20
Sunrise:07:33 AM (PST) Moon Rise:02:57 PM (PST)11/25
Sunset:04:31 PM (PST) Moon Set:04:46 AM (PST)11/25

Copyright © 2014 The Weather Underground, Inc.